User: anonymous   Login
Location: Huesca
(42.1318°N, 0.4078°W)
Time: 21:51:19
(UTC+02:00)
Language:

DX 1 - Orbit

View from above orbital plane
View from above orbital plane
View from above satellite
View from above satellite

Ground track
Ground track

The orbit data is extracted from the following two-line orbital elements,

1 40071U 14037C   24113.42016000  .00005985  00000-0  71641-3 0  9990
2 40071  98.3370  23.3796 0006769 311.1837  48.8792 14.84512188529361
Epoch (UTC): 22 April 2024 10:05:01
Eccentricity: 0.0006769
inclination: 98.3370°
perigee height: 610 km
apogee height: 620 km
right ascension of ascending node: 23.3796°
argument of perigee: 311.1837°
revolutions per day: 14.84512188
mean anomaly at epoch: 48.8792°
orbit number at epoch: 52936

The dashed part of the orbit path shows where the satellite is in the earth's shadow,  

DLR